Zurück zum Katalog

FENGYUN 1C DEB

AktivSSO
NORAD 29948·DEBRIS·🇨🇳 China

Gestartet May 10, 1999 von Taiyuan Satellite Launch Center

Loading…

Nächste Überflüge (nächste 24 Stunden)

TLE

AktuellSource: Space-Track

Epoche: Sep 14, 2026, 10:18 UTC

1 29948U 99025JW  26257.42959836  .00000237  00000-0  16473-3 0  9991
2 29948  98.8504 242.1000 0084369 179.7265 334.0473 14.06310931  8510

Verfolge FENGYUN 1C DEB in Echtzeit mit AllMySat

Download on the App Store